星链-37776(STARLINK-37776)

导读

STARLINK-37776(NORAD编号69343)是美国太空探索技术公司(SpaceX)星链星座的组成卫星,属星链低轨通信卫星序列,承担全球宽带互联网接入服务承载任务。 该卫星为星链量产型平台,设计运行于近地轨道,初始轨道高度约550公里,具备星间激光通信能力,可向地面用户提供低延迟宽带网络接入,覆盖偏远及地面网络未通达区域。2026年SpaceX启动星链轨道调整计划,将4400颗550公里高度轨道卫星降至480公里运行,以缩短故障卫星脱轨时间、降低空间碎片风险,若该卫星属于调整批次,当前已完成降轨运行,整体状态稳定,服务于星链全球组网覆盖需求。

基本信息
目录编号:
69343
目录名称:
STARLINK-37776
国际标识:
2026-122Q
轨道中心:
EARTH
卫星名称:
星链-37776
卫星全名:
星链-37776(STARLINK-37776)
卫星状态:
在轨 (已飞行94 天)
发射日期:
2026-06-03 UTC
国别 :
美国 (US)
星等 :
--
轨道信息
数据来源 国际轨道数据
星历时间: 2026-09-05T03:07:34+0800
12小时前
查看轨道信息
半长轴: 6843.629km
偏心率: 0.0001257
轨道倾角: 97.284°
近地点辐角 89.552°
升交点赤经 276.656°
平近点角 270.587°
近地点: 464.631km
远地点: 466.353km
周期: 93.905分钟
每日圈数: 15.334625
详细信息
固有亮度:
5
最大亮度:
2.5
卫星平台:
Starlink V1.0
覆盖范围:
全球
运营商:
太空探索技术公司
运营商所在国:
美国
制造商(研发单位):
太空探索技术公司
制造商所在国:
美国
使用方式:
暂无
卫星简介
Starlink 计划是 SpaceX 推出的全球卫星互联网项目,通过发射低轨道卫星,为全球尤其是偏远地区提供高速、低延迟的互联网服务。自 2019 年起,Starlink 已部署数千颗卫星,旨在缩小全球数字鸿沟,推动互联网普及。该项目还为军事、航空等行业提供通信支持,带来广泛经济效益。
2D轨道图
3D轨道图
轨道高度分析图
轨道倾角分析图
轨道综合分析图
查看轨道综合分析图
交会数据列表
事件ID 空间交会对象 最接近时刻(TCA) 交会距离 交会风险概率(CRP) 交会风险指数(CRI) 操作
CDM_260905-131604-945106-934321
2026-09-05T
13:16:46+0000
2.266 km
极远距离
2.102858E-6 低风险 0.41
CDM_260905-123404-389106-934325
OBJECT R (43891)
2026-09-05T
12:34:11+0000
2.565 km
极远距离
1.691414E-6 低风险 0.4
CDM_260905-125404-809706-934321
2026-09-05T
12:54:29+0000
2.639 km
极远距离
1.485726E-6 低风险 0.38
CDM_260906-231104-623206-934321
2026-09-06T
23:11:49+0000
2.614 km
极远距离
4.483197E-7 极低风险 0.28